Weather in Veliky Novgorod

Russia / Novgorod Oblast     58°31′22″N   31°16′11″E
temp.,
°C
wind,
m/s
gust,
m/s
humid.,
%
clouds,
%
prec.,
mm/h
press.,
hPa
HPBL,
m
28 february, sun
sun2800:000nw3896100 0.1 1019390
03:00−2w2596100 0.1 1019120
06:00−2wsw3796100 0.0 1016306
09:00−1sw3697100 2.0 1015354
12:00+1wsw1199100 1.0 101480
15:00+2nw25100100 1.3 1016218
18:00+2nnw2699100 0.0 1018185
21:00+1nw2698100 0.1 1020214
1 march, mon
mon100:000wnw239691 0.0 102257
03:00−2wnw369649 0.0 1023131
06:00−2wsw359627 0.0 1022120
09:000w499749 0.0 1021478
12:00+2w5994100 0.0 1020526
15:00+3w41190100 0.0 1020645
18:00+2wsw51389100 0.0 1017611
21:00+2w51586100 0.0 1015664
2 march, tue
tue200:00+1wnw41291100 0.0 1014681
03:00+1wnw41291100 0.0 1015471
06:000w4119274 0.0 1014432
09:00+1wnw5129087 0.0 1013671
12:00+2wnw51081100 0.0 1013740
15:00+4nw5107752 0.0 1014891
18:00+1nw513790 0.0 1015776
21:00+1nw5128125 0.0 1017909
3 march, wed
wed300:000nw5128096 0.0 1019825
03:00−2nw4118461 0.0 1021549
06:00−3wnw38870 0.0 1022246
09:00−2w410869 0.0 1022357
12:00+1w59793 0.0 1021560
15:00+2w59762 0.0 1019734
18:00+1wsw5128162 0.0 1016601
21:00+1wsw5148979 0.0 1013621
4 march, thu
thu400:00+1wsw5158698 0.0 1009927
03:00+1wsw6138099 0.0 1006847
06:00+1w61392100 0.0 1003838
09:000wnw51177100 0.2 10031093
12:00−1nw5965100 0.0 10031096
15:00−1nw5871100 0.0 10041108
18:00−2nnw477197 0.1 10051016
21:00−4nnw476664 0.1 1006812